NOOR (45529 NORAD) Tracking and Keplerian Element Data

This shows tracking and keplerian element data for the satellite.

Feedback or suggestion? Click here.




ElementValue
Catalog45529
NameNOOR
Epoch Orbit1188
Epoch Day190.07513794
Epoch Year2020
RAAN225.104
Inclination59.8103
Eccentricity0.0016106
Argument of Perigee13.6827
Mean Anonmoly11.7477
Mean Motion15.45638302
Decay Rate3.266E-05
L11 45529U 20024A 20190.07513794 .00003266 00000-0 74372-4 0 9995
L22 45529 59.8103 225.1040 0016106 13.6827 11.7477 15.45638302 11880

Live tracking and technical data element details for NOOR (NORAD 45529). NOOR can be tracked NOW for your location showing map with azimuth and elevation plus other details from your city location.

Track the satellite on the map from your city or location and see movement details for azimuth, elevation, latitude, longitude, range, height, and movement on the map or in text.







IsCatalogInMostPopularTable: catalog: 45529, numindb: 16
Update: records affected: 1



GetName: 45529 NOOR

Hit Count: updated at: Fri, 10 Jul 2020 02:48:09 GMT